GFSNE_250_rhum_003.txt.gz
RH
36 33 32 32 35 33 26 24 23 24 31 21 18 21 29 35 33 26 21 21 22 22 22 21 18 15 12 11 10 9 9 9 9 9 9 10 10 12
36 37 38 36 34 29 27 27 28 27 18 20 25 29 26 20 17 18 21 20 17 10 7 5 4 4 4 3 3 3 3 3 3 4 4 5 7 9
43 43 38 35 33 32 31 31 22 19 22 36 36 30 22 20 21 18 10 5 4 4 4 4 3 3 3 3 3 2 2 2 2 2 2 2 3 3
42 38 38 37 37 32 30 21 25 25 30 30 27 24 22 22 15 6 6 4 4 4 4 3 3 3 2 2 2 2 2 2 2 2 2 2 2 2
41 44 43 39 34 28 25 28 28 38 30 19 21 23 20 11 6 6 5 4 3 3 3 3 2 2 2 2 2 2 2 2 2 2 2 2 2 2
46 43 37 34 26 30 29 42 42 31 22 19 18 14 8 6 5 5 4 3 3 3 2 2 2 2 2 2 2 2 2 2 2 2 2 2 2 2
44 37 33 28 32 35 44 38 27 22 16 16 12 7 6 6 4 4 4 4 3 3 2 2 2 2 2 2 2 2 2 2 2 2 2 2 2 2
40 29 34 33 45 44 37 32 24 16 16 8 6 5 5 4 4 4 4 4 3 2 2 2 2 2 2 2 2 2 2 2 2 2 2 2 2 2
33 36 44 46 42 40 36 24 19 11 6 5 6 5 4 5 5 4 4 3 3 4 2 2 3 3 4 3 2 2 2 2 2 2 2 2 2 2
43 52 44 43 43 32 24 18 12 7 7 6 4 4 5 5 4 4 3 3 4 5 4 3 4 4 5 5 5 5 5 4 3 3 3 3 2 2
50 43 43 43 32 25 18 12 8 7 5 4 5 5 4 4 4 4 4 4 3 7 7 9 9 8 8 7 5 5 6 5 5 4 4 3 3 3
45 43 39 28 23 16 11 8 7 5 4 5 5 4 4 4 5 5 5 4 5 8 10 11 14 11 10 9 7 6 6 6 5 5 5 4 4 4
40 37 29 23 13 10 8 6 4 5 5 4 4 4 4 5 5 6 7 9 8 12 12 12 12 11 11 8 6 6 6 6 6 5 5 5 4 4
36 28 22 12 10 8 6 4 5 5 4 4 4 5 5 5 7 10 10 13 13 13 13 14 12 11 12 8 7 7 7 7 6 6 5 5 4 4
29 19 12 10 8 5 4 6 4 4 4 4 5 5 7 9 10 14 18 18 18 14 15 14 13 14 13 7 9 10 9 7 6 6 5 5 4 3
16 14 11 7 4 5 5 4 4 4 5 4 5 8 10 12 14 16 19 22 21 19 16 16 16 16 13 9 10 10 9 7 7 5 5 4 4 3
14 9 5 4 5 5 4 4 4 5 5 7 10 11 11 11 13 16 18 20 19 22 20 18 16 19 14 12 12 11 10 9 6 5 5 4 4 3
8 4 4 5 4 3 4 4 5 6 10 10 10 10 11 12 14 18 18 21 20 22 23 18 16 21 16 12 13 13 12 11 6 5 6 5 4 3
4 5 6 4 3 4 4 5 6 8 9 8 7 8 9 10 11 15 19 21 20 22 29 18 16 24 18 15 16 16 14 10 7 6 6 5 3 3
6 6 4 4 4 5 6 7 8 8 7 6 6 7 7 7 9 11 17 21 20 19 30 19 15 27 16 18 19 17 16 10 7 6 6 4 4 3
6 4 4 5 5 7 9 9 8 7 6 6 6 6 6 7 8 10 13 18 18 19 29 20 16 26 20 19 21 20 16 11 8 6 6 5 4 4
5 5 6 6 8 10 10 8 8 7 6 6 6 6 5 6 7 8 12 16 16 18 27 20 18 25 21 22 23 23 15 12 8 6 6 6 5 4
6 6 7 9 12 10 9 7 6 7 6 6 5 5 6 6 6 7 10 14 15 16 26 19 19 23 20 23 23 23 13 12 9 7 7 7 6 5

GFSNE_250_rhum_006.txt.gz
RH
50 44 42 43 44 45 45 42 40 37 39 38 41 37 30 25 24 24 22 27 24 23 24 27 27 26 21 14 8 6 5 5 4 4 4 4 4 6
50 48 49 49 50 50 50 47 47 42 45 45 35 27 22 22 24 26 21 21 26 25 21 16 11 6 5 5 6 4 4 4 3 4 4 3 3 3
60 55 53 54 55 57 57 51 49 50 43 39 29 25 27 29 24 19 23 23 20 12 6 5 5 4 5 5 4 4 4 3 3 3 3 3 3 3
58 61 62 60 64 58 51 53 51 38 32 24 28 40 42 27 26 28 22 14 6 5 5 5 4 4 4 4 3 4 3 3 3 2 2 2 2 2
69 68 69 64 59 57 57 43 37 28 25 26 45 36 30 29 26 20 9 6 5 4 4 3 4 4 4 4 3 3 3 2 3 2 2 2 2 2
74 70 67 61 61 52 41 32 27 28 43 39 29 28 28 24 15 8 6 4 3 3 4 3 4 4 3 3 3 2 2 2 2 2 2 2 2 2
76 71 66 63 50 39 28 30 42 48 32 25 25 27 23 10 7 5 3 3 3 4 4 3 4 3 3 2 3 3 2 2 2 2 2 1 1 1
75 73 63 54 34 31 42 53 42 32 26 24 25 14 8 6 4 3 4 4 4 4 4 3 3 3 4 3 3 3 3 3 3 2 2 2 1 1
73 71 50 31 38 52 45 41 34 25 26 16 9 7 6 4 4 4 5 4 4 4 3 3 4 4 5 4 5 4 4 4 4 3 2 2 2 2
73 35 32 48 48 43 40 31 28 23 14 8 7 4 3 4 5 5 4 4 3 5 5 4 4 5 5 7 7 6 6 6 6 4 3 3 3 2
33 40 53 51 48 35 29 27 25 12 7 6 4 4 5 5 4 4 4 4 4 5 6 8 9 10 10 10 10 9 8 6 6 5 5 4 3 3
59 59 51 41 33 29 28 23 11 8 5 3 4 5 5 4 4 5 5 5 6 6 10 11 12 11 11 12 11 10 9 7 6 5 5 5 4 4
56 48 37 33 30 28 18 9 7 4 4 5 5 4 4 4 5 6 8 11 12 11 14 13 13 12 11 10 12 11 7 6 6 6 6 6 6 5
42 39 35 30 27 15 10 7 4 4 6 5 4 4 4 5 6 10 12 14 17 15 15 19 16 12 12 13 15 8 8 8 9 9 8 7 6 5
42 35 30 24 12 11 7 4 5 6 4 4 4 5 6 8 11 11 12 13 16 20 18 22 21 15 14 14 12 9 8 10 9 8 7 7 6 6
37 30 18 13 12 6 5 6 6 4 4 4 5 7 9 10 11 12 11 14 16 21 19 20 21 16 16 15 13 13 11 7 9 8 8 7 5 5
27 16 13 11 5 5 6 5 4 4 5 7 9 9 8 8 8 9 10 11 15 16 18 23 19 19 15 15 18 13 12 11 10 8 7 6 5 4
15 13 10 5 6 6 4 4 4 5 7 8 7 6 6 6 6 7 8 10 12 13 16 23 23 20 15 18 16 15 12 11 11 9 7 6 5 4
13 8 5 6 6 4 4 5 5 7 7 6 6 5 5 5 5 6 7 9 10 12 15 20 22 17 18 22 18 18 16 14 11 7 6 6 5 4
8 6 7 6 5 5 6 7 9 7 6 6 6 6 6 5 5 6 7 9 9 12 15 19 21 15 19 22 20 18 15 14 9 6 6 6 5 3
6 7 5 5 6 7 10 9 7 6 5 5 6 6 5 5 5 6 7 8 10 14 14 20 19 16 26 23 22 18 16 11 8 7 6 5 4 3
7 5 6 6 8 12 10 8 6 6 6 6 6 6 6 5 6 6 7 8 12 14 14 20 17 19 28 24 21 19 14 10 8 7 6 5 4 4
5 6 7 8 13 10 9 8 8 6 7 7 6 6 6 6 6 6 6 8 16 14 15 20 16 23 26 25 22 18 11 10 7 7 7 5 4 4

GFSNE_250_rhum_009.txt.gz
RH
38 48 55 55 56 56 57 62 63 60 57 61 60 60 54 51 51 46 41 34 25 19 18 25 23 31 33 35 33 26 20 16 11 8 7 5 4 3
36 39 42 50 47 42 50 53 52 50 52 60 58 55 50 46 36 27 20 17 20 21 20 25 28 30 28 18 12 9 7 6 4 4 4 4 4 4
35 35 36 36 34 43 51 50 54 54 58 68 60 51 39 28 22 18 22 20 19 22 26 26 19 12 6 5 6 5 4 4 3 3 3 3 3 3
34 33 33 30 39 45 51 52 58 66 57 51 59 43 29 22 23 23 20 20 23 23 15 9 6 5 4 4 4 3 3 3 3 3 4 4 4 3
38 38 33 38 42 51 51 60 64 62 57 49 39 26 26 31 24 22 22 26 17 8 6 6 4 3 3 4 4 4 4 3 3 3 3 3 3 2
43 41 42 47 54 53 64 65 67 66 51 34 26 28 29 23 22 24 25 13 7 5 4 3 3 4 4 3 3 3 3 3 3 3 2 2 2 2
52 46 53 56 60 69 67 70 66 58 32 26 32 26 22 24 27 21 8 5 3 3 4 4 4 3 3 3 3 3 3 3 3 3 2 2 2 2
61 60 58 64 69 68 70 64 50 30 30 31 22 21 26 24 14 7 4 3 4 3 5 3 3 3 4 4 4 4 3 3 3 3 2 2 2 2
60 63 70 68 71 64 64 39 33 40 30 21 23 26 21 9 6 4 4 4 4 3 4 3 4 4 4 4 4 4 4 5 6 6 6 5 4 3
75 71 74 65 68 55 34 44 44 32 26 28 24 14 8 5 4 5 4 3 3 3 6 4 5 4 5 5 5 6 7 7 8 8 8 7 7 5
79 68 68 62 38 43 54 42 34 27 30 20 11 7 4 4 5 4 3 4 4 3 6 6 6 6 7 8 8 9 10 10 10 9 8 7 7 6
70 68 43 41 56 51 38 30 31 28 17 10 6 4 5 5 4 4 5 5 5 5 8 9 10 13 8 15 12 12 11 12 11 10 9 8 6 5
49 46 62 60 46 36 32 32 24 14 9 5 4 5 4 4 4 5 6 10 10 10 10 10 9 11 15 11 15 14 12 12 11 9 7 6 5 6
70 68 51 44 39 35 30 21 12 9 4 4 5 4 4 4 6 8 10 12 11 12 8 10 10 12 13 13 14 14 14 14 12 6 7 8 8 7
56 51 49 43 35 26 17 11 7 4 5 5 4 4 5 6 8 9 9 9 9 10 12 8 8 14 15 14 16 15 13 9 13 12 11 10 8 7
61 51 41 33 23 14 11 7 5 5 5 4 5 6 7 7 7 7 6 6 7 7 11 9 8 14 14 18 16 13 12 14 9 12 12 11 9 8
49 40 31 21 13 10 6 6 6 4 4 5 7 8 7 6 5 5 5 5 6 6 8 11 9 12 16 17 15 20 14 12 16 13 10 9 8 6
35 27 18 12 11 6 6 6 5 5 6 8 8 6 5 5 4 5 5 5 5 6 7 9 10 12 15 16 13 19 19 17 15 12 11 8 7 6
25 14 12 10 6 7 6 6 6 8 9 7 6 6 5 5 5 5 5 5 5 6 8 10 11 12 16 13 17 15 17 17 14 12 10 7 6 5
13 11 10 6 7 6 7 7 10 9 7 6 6 5 5 5 5 5 5 5 6 7 9 12 12 14 12 15 20 17 16 15 14 11 7 6 6 5
11 8 6 7 7 8 8 12 9 8 7 7 6 5 5 4 5 5 5 6 8 9 12 13 12 14 15 19 19 19 17 13 10 7 6 6 5 4
7 7 8 7 8 9 13 10 10 8 8 7 6 6 5 5 5 5 6 7 8 13 15 11 14 14 17 17 19 19 14 11 8 7 6 6 5 4
7 8 7 8 8 15 12 11 11 9 10 8 6 6 6 5 6 6 6 7 12 17 12 15 14 17 17 20 20 17 11 10 8 7 6 6 5 4

GFSNE_250_rhum_012.txt.gz
RH
71 87 98 77 61 46 39 36 33 35 41 41 34 30 30 36 46 50 47 41 36 31 23 17 15 19 24 22 25 25 26 27 25 21 17 13 9 6
90 90 98 87 64 51 42 38 34 30 31 32 30 26 30 43 44 40 37 32 26 19 15 18 20 21 25 26 28 28 24 17 10 6 5 4 4 4
77 78 77 61 58 54 46 42 38 32 30 31 26 22 33 36 37 32 26 21 15 18 19 19 23 24 23 20 15 10 6 5 4 4 4 3 3 3
55 57 57 57 58 52 44 41 36 34 29 23 23 39 36 36 30 26 19 16 19 20 24 22 21 15 9 6 5 4 3 3 2 3 3 2 3 3
52 49 45 42 44 44 40 40 38 34 25 22 34 36 37 30 21 16 19 21 24 23 22 18 11 6 4 3 3 3 3 4 4 4 3 3 3 3
50 44 32 32 34 37 37 36 31 28 32 36 36 36 28 19 18 21 23 26 28 18 11 7 5 3 3 4 4 4 3 3 3 2 3 3 2 2
40 36 35 35 34 34 34 33 43 46 44 43 36 28 18 22 19 26 29 25 16 7 6 3 4 4 4 3 3 2 2 2 3 3 3 3 3 3
37 35 36 33 33 33 41 47 46 46 42 30 20 25 24 22 27 28 20 12 7 3 4 4 4 3 3 3 3 3 3 3 3 4 4 4 3 3
36 36 36 36 41 45 53 52 49 39 25 23 24 18 24 28 27 19 10 7 4 4 4 3 3 3 4 3 4 4 4 5 5 5 5 5 5 5
44 39 42 49 53 52 55 47 36 28 30 24 22 26 28 19 13 8 6 5 4 3 3 5 3 3 5 6 8 7 8 8 8 8 8 8 7 7
44 53 53 53 44 35 43 37 33 39 29 24 28 24 16 9 6 5 5 4 4 3 3 7 6 7 8 7 10 10 11 12 13 13 12 10 9 9
58 52 42 38 36 34 32 48 45 29 28 32 20 12 7 4 4 4 3 4 4 4 3 7 6 9 7 7 10 12 11 13 14 16 13 11 11 11
40 40 39 36 37 53 52 39 32 33 29 19 10 6 4 4 4 3 3 4 6 7 6 6 6 6 9 7 8 14 14 11 16 17 14 12 13 13
45 46 53 62 58 51 43 36 33 24 16 9 6 5 5 4 4 5 5 5 6 7 6 6 5 5 6 8 6 12 16 16 18 14 13 13 12 9
70 66 61 60 55 47 36 29 21 13 9 5 6 5 4 5 5 4 4 4 4 5 5 5 5 5 6 10 6 10 11 18 18 15 12 11 8 7
68 67 62 54 45 32 26 19 11 8 6 6 6 5 6 6 4 4 4 4 4 5 6 5 5 5 8 11 7 9 17 13 14 19 15 12 14 10
72 59 50 38 28 24 16 10 8 6 7 6 6 7 6 6 5 5 4 4 5 5 5 5 5 8 9 9 11 14 16 13 16 10 9 10 11 9
48 41 32 26 22 14 10 7 7 8 7 7 7 7 7 6 5 4 5 5 5 5 6 6 7 9 11 11 13 19 16 14 12 14 14 11 9 6
33 24 23 16 13 9 7 8 8 7 9 8 8 7 6 5 5 4 5 5 5 6 6 8 10 11 12 14 13 14 19 17 18 15 11 8 5 5
23 19 14 12 7 7 9 9 8 12 10 8 8 7 6 5 5 4 5 5 6 7 9 10 12 11 14 14 15 15 15 15 12 10 8 7 6 6
14 12 9 7 7 9 9 9 14 12 9 9 8 7 6 6 5 5 6 6 8 10 12 13 12 14 14 19 20 20 16 12 10 8 7 6 5 4
8 7 6 8 9 9 12 16 14 11 10 9 8 7 8 7 7 7 7 8 12 16 14 12 14 16 18 20 20 17 12 10 9 7 6 6 4 4
6 6 8 9 9 11 18 16 14 12 10 11 8 9 9 8 8 9 10 15 20 18 14 14 17 18 20 20 17 12 10 9 8 7 6 5 5 5

GFSNE_250_rhum_015.txt.gz
RH
81 82 78 74 75 78 79 73 70 83 86 81 75 81 75 54 37 33 29 27 26 22 19 17 18 16 26 28 26 22 20 22 22 22 18 17 16 16
78 93 98 98 96 92 88 80 70 59 58 77 75 70 65 51 47 45 36 29 25 22 19 17 17 24 26 24 19 24 24 22 20 18 16 13 12 10
84 82 79 80 77 74 72 66 58 45 34 35 35 43 42 40 39 35 30 26 22 21 17 22 26 24 19 22 22 22 23 17 13 9 7 6 5 4
82 83 85 76 59 56 57 59 52 41 35 38 39 32 29 26 25 25 23 21 19 24 26 24 19 21 22 20 21 17 10 6 5 4 4 3 3 2
83 81 81 78 68 57 50 41 38 40 37 34 31 27 27 25 23 23 26 28 28 22 17 20 22 20 18 13 9 6 5 4 3 2 2 3 3 3
83 73 72 77 80 78 67 48 35 31 31 29 27 24 22 24 27 29 33 24 20 20 22 20 18 13 8 6 5 4 3 3 3 3 3 3 2 2
74 80 81 73 59 51 48 47 38 30 28 26 29 33 35 34 28 21 19 24 26 20 20 16 8 7 5 3 3 4 4 3 3 3 3 3 3 3
77 63 56 58 64 62 51 43 37 31 33 35 32 28 22 18 19 24 25 24 29 15 9 7 4 3 3 4 4 3 3 3 3 3 4 3 3 4
64 70 77 76 69 60 52 46 41 34 25 22 21 20 21 25 26 25 21 17 10 6 4 5 3 4 3 3 3 4 4 4 6 6 6 6 6 5
76 80 80 73 58 46 41 39 32 26 23 23 26 28 25 23 20 16 13 8 5 4 3 5 3 3 3 3 4 5 7 7 8 7 8 8 8 8
80 63 54 49 42 35 33 33 34 35 40 36 28 24 22 16 13 9 5 4 4 4 2 4 4 5 5 4 5 8 9 7 8 8 8 8 9 10
59 48 43 40 38 38 45 54 58 52 40 32 26 22 14 10 6 4 4 4 3 4 4 5 5 5 6 4 6 8 8 7 8 9 10 11 11 12
45 42 41 42 48 59 63 58 49 41 32 29 25 16 9 6 4 4 4 4 5 4 4 4 4 4 4 4 4 6 7 7 8 9 12 11 11 14
49 56 67 72 74 67 58 46 36 33 28 20 13 8 5 5 4 4 4 4 3 5 4 3 3 3 4 4 3 6 8 8 8 10 10 11 13 15
78 79 73 69 62 49 39 35 32 22 15 12 7 5 5 5 6 6 5 4 4 4 4 3 4 4 4 4 5 6 6 10 13 9 9 12 13 14
75 67 57 46 40 36 35 27 17 13 11 6 6 6 5 7 6 6 6 5 4 4 4 4 4 4 4 4 5 7 8 9 10 11 13 11 14 18
58 47 41 38 36 29 19 15 13 9 6 7 6 6 8 7 6 6 6 5 4 4 5 5 5 5 5 5 5 7 7 8 12 14 17 14 15 16
43 40 35 29 22 16 14 9 7 6 8 7 7 10 8 8 7 6 5 5 4 5 5 6 6 6 7 8 8 8 9 11 14 15 15 13 12 14
34 26 19 16 14 10 7 6 7 8 7 8 11 9 9 8 7 6 6 6 6 6 7 9 9 9 8 10 12 15 14 12 13 13 10 9 8 7
18 15 13 9 6 6 7 8 8 8 10 12 11 11 9 8 8 7 7 8 7 10 12 12 11 13 13 12 14 16 16 16 13 11 9 7 6 5
11 8 5 5 6 8 8 8 8 12 13 12 12 11 9 10 10 9 9 9 14 16 14 14 16 17 19 18 18 16 13 10 8 7 7 6 6 5
5 5 6 7 7 8 8 9 12 14 14 14 13 11 11 12 11 11 12 18 21 19 16 18 22 22 20 19 17 14 10 8 8 7 6 5 4 4
6 6 7 8 8 9 10 13 12 12 14 15 14 11 13 14 12 12 18 20 20 19 22 24 20 18 18 16 13 10 10 9 7 6 6 5 5 5

GFSNE_250_rhum_018.txt.gz
RH
81 66 66 63 52 51 53 58 60 74 90 89 88 83 80 72 63 61 61 58 56 52 42 37 31 29 27 24 25 23 22 21 20 18 17 15 14 15
88 76 71 62 56 61 58 59 64 65 64 66 69 66 62 58 58 60 58 53 47 38 28 27 24 22 22 22 21 22 20 18 16 15 16 16 18 17
85 78 69 65 62 58 63 71 72 72 67 62 63 69 67 63 60 51 45 42 37 33 28 27 26 22 21 20 19 18 18 20 21 19 18 15 14 16
72 77 82 74 72 69 69 73 70 71 64 66 65 65 62 57 46 40 36 30 28 28 27 25 23 23 25 27 26 24 21 18 15 15 17 17 16 14
81 82 79 82 79 78 75 73 74 72 66 56 50 52 56 56 56 45 38 35 30 24 22 25 25 22 19 18 17 18 19 22 20 16 14 11 7 6
92 76 78 82 83 81 76 73 62 59 58 58 58 58 47 44 36 35 37 29 27 22 21 21 20 22 22 23 22 19 16 12 8 6 5 4 4 3
72 84 94 84 71 63 62 66 65 63 59 55 49 42 37 32 27 24 22 23 31 28 29 28 23 19 13 10 8 6 5 5 5 4 3 3 3 3
76 85 70 67 64 68 66 65 64 57 44 38 35 29 28 27 31 33 32 31 29 20 16 14 10 7 5 5 4 3 3 4 4 3 3 3 3 3
86 78 76 75 70 70 68 55 46 37 30 31 30 32 36 34 33 32 26 21 18 12 7 8 6 4 3 3 3 3 3 4 5 4 3 4 4 4
93 78 76 77 75 61 48 42 42 39 41 50 49 48 42 32 26 24 17 13 9 7 4 4 4 4 3 2 2 3 4 5 6 6 5 5 5 6
76 78 80 72 56 48 45 48 66 69 62 53 45 38 31 25 21 16 10 7 5 4 3 4 3 4 4 4 4 4 4 4 5 6 6 6 7 7
83 80 58 52 51 52 68 72 71 63 51 43 35 30 24 18 11 8 6 4 4 5 4 6 4 4 4 4 3 4 4 4 4 5 6 7 7 7
73 56 54 58 72 70 66 61 50 47 42 34 30 24 16 10 8 4 4 5 4 6 5 5 4 4 4 4 3 4 4 4 4 4 5 6 6 6
59 66 76 77 70 61 49 45 42 37 32 28 21 15 10 7 4 6 5 5 5 5 5 4 4 4 4 4 4 4 4 4 4 4 5 5 6 6
79 76 68 56 46 41 41 39 33 28 22 18 15 10 6 5 7 6 6 6 5 6 5 4 4 4 4 4 4 4 4 4 4 4 5 5 6 8
61 48 40 38 40 39 32 25 21 18 16 12 7 5 6 7 6 11 8 7 6 5 5 4 4 5 5 6 5 6 6 6 6 6 7 8 8 9
41 37 37 35 29 24 20 17 15 12 7 6 6 7 7 8 11 9 8 8 7 6 6 6 6 7 7 8 8 8 8 9 9 8 7 7 9 14
35 34 27 20 17 15 13 10 7 6 7 7 7 7 10 13 9 9 9 8 8 8 7 8 10 10 9 8 8 8 9 9 10 10 10 9 11 15
23 16 14 13 9 6 6 6 7 7 7 7 8 12 12 10 10 9 10 10 9 9 12 13 10 9 8 9 9 10 12 11 12 15 14 13 10 12
13 9 6 5 5 6 7 7 7 7 7 11 13 12 11 10 9 11 11 11 12 20 19 13 11 11 12 14 16 15 14 15 16 14 11 10 7 6
5 5 6 7 7 7 7 7 8 10 12 12 10 10 11 11 11 13 13 16 18 16 13 14 15 16 16 16 17 16 13 9 8 8 8 8 7 6
6 7 7 8 7 7 8 12 15 13 11 10 10 13 13 12 12 15 18 19 17 16 16 17 17 17 17 17 14 11 10 9 8 8 7 7 6 6
9 8 8 10 13 15 16 14 12 10 10 10 13 14 14 12 15 18 19 16 21 19 19 19 19 18 15 12 11 10 9 8 8 7 6 6 7 7